Location: Proctor
(47.8934°N, 114.3048°W)
Time: 13:29:13
(UTC+00:00)

Vanguard 3 - All Passes

Search period start: 25 June 2024 00:00
Search period end: 05 July 2024 00:00
Orbit: 509 x 3231 km, 33.3° (Epoch: 24 June)

Date Brightness Start Highest point End Pass type
(mag) Time Alt. Az. Time Alt. Az. Time Alt. Az.
25 Jun - 14:07:41 10° SSW 14:16:28 19° SSE 14:22:58 10° ESE daylight
25 Jun - 16:19:20 10° SW 16:28:24 27° S 16:34:18 10° ESE daylight
25 Jun - 18:33:21 10° WSW 18:39:15 22° SSW 18:43:25 10° SSE daylight
26 Jun - 12:50:27 10° S 12:57:37 15° SSE 13:03:30 10° ESE daylight
26 Jun - 14:59:31 10° SW 15:09:59 26° SSE 15:17:00 10° ESE daylight
26 Jun - 17:13:04 10° WSW 17:21:34 28° S 17:27:03 10° SE daylight
26 Jun - 19:28:04 10° WSW 19:31:50 15° SSW 19:34:51 10° S daylight
27 Jun - 13:40:18 10° SSW 13:51:11 23° SSE 13:59:00 10° ESE daylight
27 Jun - 15:52:42 10° SW 16:03:24 31° S 16:10:11 10° ESE daylight
27 Jun - 18:07:17 10° WSW 18:14:28 24° SSW 18:19:18 10° SE daylight
28 Jun - 12:22:26 10° S 12:32:06 18° SSE 12:39:48 10° ESE daylight
28 Jun - 14:32:31 10° SW 14:44:46 30° SSE 14:52:49 10° ESE daylight
28 Jun - 16:46:38 10° WSW 16:56:37 32° S 17:02:54 10° SE daylight
28 Jun - 19:02:07 10° WSW 19:07:02 17° SSW 19:10:45 10° S daylight
29 Jun - 11:08:01 10° SSE 11:12:55 12° SE 11:17:25 10° SE visible
29 Jun - 13:13:00 10° SSW 13:25:42 27° SSE 13:34:46 10° ESE daylight
29 Jun - 15:25:56 10° SW 15:38:14 35° S 15:45:56 10° ESE daylight
29 Jun - 17:41:02 10° WSW 17:49:33 27° SSW 17:55:07 10° SE daylight
30 Jun - 11:54:45 10° S 12:06:24 21° SSE 12:15:38 10° ESE daylight
30 Jun - 14:05:30 10° SW 14:19:20 34° SSE 14:28:27 10° ESE daylight
30 Jun - 16:20:02 10° WSW 16:31:31 35° S 16:38:37 10° SE daylight
30 Jun - 18:36:00 10° WSW 18:42:06 19° SSW 18:46:33 10° S daylight
01 Jul - 10:39:06 10° SSE 10:47:04 14° SE 10:54:10 10° ESE visible
01 Jul - 12:45:46 10° SSW 13:00:01 30° SSE 13:10:17 10° ESE daylight
01 Jul - 14:59:04 10° WSW 15:12:52 38° S 15:21:33 10° ESE daylight
01 Jul - 17:14:35 10° WSW 17:24:29 30° SSW 17:30:49 10° SE daylight
02 Jul - 11:27:20 10° SSW 11:40:29 24° SSE 11:51:05 10° ESE daylight
02 Jul - 13:38:28 10° SW 13:53:41 37° S 14:03:55 10° ESE daylight
02 Jul - 15:53:18 10° WSW 16:06:13 38° S 16:14:12 10° SE daylight
02 Jul - 18:09:40 10° WSW 18:17:03 21° SSW 18:22:14 10° SSE daylight
03 Jul - 10:11:08 10° S 10:21:02 16° SE 10:29:55 10° ESE visible
03 Jul - 12:18:38 10° SSW 12:34:07 33° SSE 12:45:35 10° ESE daylight
03 Jul - 14:32:09 10° WSW 14:47:19 41° S 14:57:00 10° ESE daylight
03 Jul - 16:47:59 10° WSW 16:59:15 32° SSW 17:06:24 10° SE daylight
03 Jul - 19:06:52 10° WSW 19:09:08 11° SW 19:11:10 10° SSW daylight
04 Jul - 11:00:07 10° SSW 11:14:24 26° SSE 11:26:15 10° ESE visible
04 Jul - 13:11:28 10° SW 13:27:51 40° S 13:39:11 10° ESE daylight
04 Jul - 15:26:28 10° WSW 15:40:45 40° SSW 15:49:40 10° SE daylight
04 Jul - 17:43:10 10° WSW 17:51:49 23° SW 17:57:48 10° SSE daylight
